[[{"header":{"parameterUnit":"m.s-1","parameterCategory":1,"la1":30.2991,"la2":30.254,"lo1":-89.0895,"lo2":-89.0444,"dy":0.0017,"dx":0.0017,"nx":28,"ny":28,"refTime":"2023-10-16T09:00:00:Z","depth":0,"parameterNumber":2,"parameterNumberName":"U-component_of_WINDS"},"data":[0,0,0,0,0,0,0,0,0,0,0,0,0,0,0,0,0,0,0,0,0,0,0,0,0,0,0,0,0,0,0,0,0,0,0,0,0,0,0,0,0,0,0,0,0,0,0,0,0,0,0,0,0,0,0,0,0,0,1.2759,1.2759,0,1.271,1.2709,1.2709,1.2686,1.2686,1.2686,1.2686,1.2633,1.2632,1.263,0,0,0,0,0,0,0,0,0,0,0,0,0,1.2832,1.2831,1.2759,1.2759,1.2758,1.271,1.2709,1.2709,1.2686,1.2686,1.2686,1.2686,1.2634,1.2632,1.263,0,0,0,0,0,0,0,0,0,0,0,0,0,1.2794,1.2831,1.2759,1.2741,1.2739,1.271,1.2709,1.2708,1.2686,1.2686,1.2686,1.2686,1.2634,1.2632,1.263,1.2615,0,0,1.2623,1.2622,0,0,0,0,0,0,0,0,1.2796,1.2791,1.2745,1.2742,1.274,1.2704,1.2716,1.2677,1.2686,1.2706,1.2686,1.2686,1.2657,1.2653,1.2643,1.2612,1.261,1.2623,1.2622,1.2621,1.262,0,0,0,0,0,0,0,1.2798,1.2793,1.274,1.2744,1.2741,1.2735,1.2729,1.2708,1.2681,1.2704,1.2703,1.2697,1.2655,1.2645,1.2642,1.2609,1.2623,1.2621,1.262,1.2619,1.2563,1.2563,0,0,0,0,0,0,1.2804,1.2795,1.2741,1.2738,1.2769,1.2733,1.2727,1.2716,1.2682,1.2677,1.2697,1.2696,1.2649,1.2644,1.264,1.262,1.2621,1.2619,1.2618,1.2564,1.2563,1.2563,0,0,0,0,0,0,1.2806,1.28,1.2743,1.2766,1.2759,1.2732,1.2719,1.2715,1.2704,1.2676,1.2671,1.2692,1.2649,1.2643,1.2621,1.2618,1.2618,1.2616,1.2564,1.2564,1.2563,1.2579,0,0,0,0,0,0,1.2808,1.2801,1.2795,1.2766,1.2757,1.2726,1.2719,1.2714,1.2701,1.2699,1.267,1.2665,1.2649,1.2625,1.2619,1.2615,1.2614,1.2564,1.2564,1.2563,1.2579,1.258,1.258,0,0,0,0,0,1.2811,1.2801,1.2795,1.2788,1.275,1.2726,1.2721,1.2703,1.2701,1.2695,1.2677,1.2666,1.2619,1.2623,1.2616,1.2611,1.2564,1.2564,1.2563,1.2579,1.258,1.258,0,0,0,0,0,0,1.2829,1.2797,1.279,1.277,1.2751,1.2722,1.2714,1.2704,1.2685,1.2684,1.2662,1.2655,1.2636,1.2621,1.2626,1.2594,1.2591,1.2589,1.2605,1.2605,1.2606,1.2609,1.2612,0,0,0,0,0,1.2831,1.2815,1.2787,1.2773,1.2764,1.2741,1.273,1.2717,1.2696,1.2688,1.2668,1.2648,1.2628,1.2616,1.2597,1.2577,1.257,1.257,1.2571,1.2572,1.257,1.2559,1.2559,1.2562,1.2562,1.2562,0,0,1.2834,1.2815,1.2806,1.2776,1.276,1.2743,1.2734,1.2717,1.2704,1.2685,1.2664,1.2649,1.2624,1.2604,1.2594,1.2591,1.2568,1.2571,1.2572,1.257,1.2559,1.2558,1.2558,1.2562,1.2562,1.2562,0,0,1.2832,1.2815,1.2802,1.2786,1.2762,1.2747,1.2743,1.2716,1.2706,1.2684,1.267,1.2654,1.2621,1.2604,1.2592,1.2584,1.2573,1.2578,1.2581,1.257,1.257,1.2569,1.2566,1.2565,1.2577,1.2577,1.2577,0,1.2838,1.2813,1.2795,1.2779,1.2766,1.275,1.2735,1.272,1.2691,1.2682,1.268,1.2639,1.2621,1.2596,1.2595,1.2585,1.258,1.2581,1.2571,1.2571,1.257,1.2567,1.2566,1.2577,1.2577,1.2577,1.2577,0,1.2823,1.2806,1.2797,1.2771,1.2757,1.2741,1.272,1.2709,1.2698,1.2683,1.2661,1.264,1.2616,1.2609,1.2598,1.2583,1.2582,1.2576,1.2571,1.2571,1.2568,1.2566,1.2578,1.2578,1.2578,1.2578,0,0,1.283,1.2794,1.2791,1.2778,1.2751,1.2737,1.2721,1.2698,1.2688,1.2669,1.2654,1.2627,1.2622,1.2607,1.2594,1.2585,1.258,1.258,1.2579,1.258,1.2562,1.2566,1.2565,1.2573,1.2573,1.2572,1.2564,0,1.2823,1.2794,1.2778,1.2755,1.2739,1.2723,1.2709,1.269,1.2676,1.266,1.2644,1.2625,1.2619,1.261,1.26,1.2582,1.2576,1.2583,1.2559,1.2558,1.2565,1.2564,1.2568,1.2561,1.2562,1.2562,1.2562,0,1.2812,1.2793,1.277,1.2744,1.2737,1.2724,1.2702,1.2687,1.2666,1.2656,1.264,1.2627,1.2609,1.2607,1.2582,1.2587,1.2576,1.2566,1.2565,1.2562,1.256,1.256,1.2558,1.2557,1.256,1.256,1.256,0,1.2819,1.2788,1.277,1.276,1.273,1.2721,1.2708,1.2687,1.2675,1.2655,1.2647,1.2626,1.2614,1.2597,1.2579,1.2579,1.2555,1.2551,1.2546,1.2547,1.2541,1.2542,1.2538,1.2535,1.2535,1.2535,1.2535,0,1.2813,1.2799,1.2773,1.2762,1.2745,1.2726,1.2711,1.2696,1.2677,1.2663,1.2648,1.2634,1.2611,1.2594,1.258,1.2561,1.2556,1.2547,1.2543,1.2548,1.2549,1.254,1.254,1.2535,1.2535,1.2535,1.2535,0,1.2818,1.28,1.2779,1.2753,1.2746,1.2735,1.2712,1.27,1.2686,1.2667,1.2662,1.2638,1.2618,1.2598,1.2571,1.2561,1.2542,1.2537,1.255,1.2548,1.2544,1.2544,1.2533,1.2531,1.253,1.253,1.253,0,1.2816,1.2805,1.2777,1.2767,1.2754,1.2737,1.2725,1.2706,1.2693,1.2668,1.2659,1.2638,1.262,1.2589,1.2569,1.2548,1.2542,1.254,1.2539,1.2544,1.2542,1.2543,1.2541,1.254,1.2541,1.2541,1.2541,0,1.2813,1.2805,1.2787,1.2767,1.2753,1.2736,1.2718,1.271,1.2688,1.2674,1.2654,1.264,1.2613,1.2592,1.2569,1.2555,1.2544,1.2541,1.2539,1.2544,1.2551,1.2547,1.2551,1.2542,1.2541,1.2541,1.2541,1.2541,1.2814,1.2803,1.2782,1.2764,1.2749,1.2733,1.272,1.2704,1.2687,1.2664,1.2654,1.2633,1.2612,1.258,1.2566,1.255,1.2547,1.2543,1.2543,1.2542,1.2543,1.2555,1.2545,1.2545,1.2545,1.2545,1.2545,0,1.281,1.2796,1.2779,1.2755,1.2741,1.2733,1.2713,1.2701,1.2683,1.2665,1.2648,1.2624,1.2604,1.2583,1.2562,1.2552,1.2547,1.2547,1.2547,1.2544,1.2547,1.2551,1.2552,1.2552,1.2552,1.2552,1.2552,1.2552,1.2806,1.2788,1.2777,1.2751,1.2737,1.2717,1.2707,1.2692,1.2677,1.2652,1.2635,1.2622,1.2602,1.258,1.2561,1.2555,1.2548,1.2549,1.2542,1.2545,1.2544,1.2544,1.2548,1.2548,1.2548,1.2541,1.2541,1.2541]},{"header":{"parameterUnit":"m.s-1","parameterCategory":1,"la1":30.2991,"la2":30.254,"lo1":-89.0895,"lo2":-89.0444,"dy":0.0017,"dx":0.0017,"nx":28,"ny":28,"refTime":"2023-10-16T09:00:00:Z","depth":0,"parameterNumber":3,"parameterNumberName":"V-component_of_WINDS"},"data":[0,0,0,0,0,0,0,0,0,0,0,0,0,0,0,0,0,0,0,0,0,0,0,0,0,0,0,0,0,0,0,0,0,0,0,0,0,0,0,0,0,0,0,0,0,0,0,0,0,0,0,0,0,0,0,0,0,0,-5.5671,-5.5673,0,-5.5866,-5.5869,-5.5871,-5.5795,-5.579,-5.5786,-5.5781,-5.5975,-5.5984,-5.5993,0,0,0,0,0,0,0,0,0,0,0,0,0,-5.5227,-5.5235,-5.5671,-5.5674,-5.5676,-5.5866,-5.5869,-5.5871,-5.5795,-5.579,-5.5784,-5.5779,-5.5971,-5.5983,-5.5994,0,0,0,0,0,0,0,0,0,0,0,0,0,-5.542,-5.5238,-5.5671,-5.5661,-5.5662,-5.5866,-5.5869,-5.5872,-5.5797,-5.579,-5.5783,-5.5777,-5.5968,-5.5981,-5.5995,-5.6218,0,0,-5.6038,-5.6044,0,0,0,0,0,0,0,0,-5.5409,-5.5437,-5.566,-5.5662,-5.5664,-5.5799,-5.5783,-5.5988,-5.5798,-5.5745,-5.5781,-5.5773,-5.5921,-5.5939,-5.599,-5.6227,-5.6235,-5.6039,-5.6048,-5.6054,-5.6058,0,0,0,0,0,0,0,-5.5396,-5.5428,-5.5748,-5.5663,-5.5666,-5.5645,-5.5665,-5.5821,-5.5869,-5.5749,-5.5744,-5.5769,-5.5921,-5.5977,-5.5994,-5.6238,-5.6039,-5.6052,-5.606,-5.6066,-5.6667,-5.6674,0,0,0,0,0,0,-5.5383,-5.5417,-5.5742,-5.5754,-5.5518,-5.5659,-5.5681,-5.5763,-5.5867,-5.5876,-5.5775,-5.5765,-5.5956,-5.5978,-5.6,-5.6269,-5.6054,-5.6067,-5.6075,-5.666,-5.6669,-5.6677,0,0,0,0,0,0,-5.5374,-5.5413,-5.5734,-5.5585,-5.5624,-5.5674,-5.5766,-5.577,-5.5826,-5.5886,-5.5893,-5.5823,-5.5952,-5.5981,-5.6165,-5.6274,-5.6073,-5.6086,-5.6651,-5.6662,-5.6673,-5.6807,0,0,0,0,0,0,-5.5361,-5.541,-5.5496,-5.5587,-5.5632,-5.5898,-5.5772,-5.5779,-5.5851,-5.584,-5.5934,-5.5943,-5.5948,-5.6144,-5.6179,-5.629,-5.6097,-5.6641,-5.6656,-5.6669,-5.6793,-5.6821,-5.6846,0,0,0,0,0,-5.5346,-5.5524,-5.5501,-5.5541,-5.5742,-5.5904,-5.5929,-5.5935,-5.586,-5.5947,-5.5985,-5.594,-5.6257,-5.6164,-5.6202,-5.6319,-5.6634,-5.6652,-5.6668,-5.6781,-5.6816,-5.6845,0,0,0,0,0,0,-5.5443,-5.5536,-5.5511,-5.5725,-5.5808,-5.5891,-5.6,-5.5971,-5.6075,-5.606,-5.6059,-5.6081,-5.6272,-5.6313,-5.6208,-5.654,-5.6434,-5.6459,-5.6506,-5.654,-5.6566,-5.6552,-5.6109,0,0,0,0,0,-5.5489,-5.5616,-5.5689,-5.5871,-5.5914,-5.595,-5.6021,-5.6018,-5.6103,-5.6136,-5.6188,-5.627,-5.6388,-5.6466,-5.6578,-5.6798,-5.6817,-5.6897,-5.6923,-5.6945,-5.6967,-5.7088,-5.7124,-5.6733,-5.6733,-5.6732,0,0,-5.5586,-5.5653,-5.5732,-5.5892,-5.5955,-5.6085,-5.598,-5.612,-5.6216,-5.6157,-5.6335,-5.6376,-5.6467,-5.6671,-5.6763,-5.6712,-5.708,-5.6967,-5.6983,-5.6994,-5.7109,-5.7146,-5.7179,-5.6744,-5.6742,-5.674,0,0,-5.5829,-5.5892,-5.6051,-5.6118,-5.6216,-5.624,-5.6278,-5.6366,-5.6392,-5.6572,-5.653,-5.6642,-5.6846,-5.6913,-5.6974,-5.7244,-5.7206,-5.728,-5.7418,-5.7535,-5.7566,-5.7594,-5.7691,-5.7726,-5.7301,-5.7302,-5.7302,0,-5.5937,-5.6132,-5.6136,-5.6282,-5.6353,-5.6308,-5.6468,-5.6531,-5.666,-5.671,-5.6651,-5.6906,-5.6964,-5.7184,-5.725,-5.73,-5.7343,-5.727,-5.7562,-5.7589,-5.7615,-5.7708,-5.7744,-5.731,-5.7309,-5.7308,-5.7308,0,-5.626,-5.6396,-5.6512,-5.6642,-5.6725,-5.6877,-5.6903,-5.6987,-5.6977,-5.7006,-5.7189,-5.7257,-5.7383,-5.7434,-5.7424,-5.7653,-5.7618,-5.7561,-5.7454,-5.7661,-5.7748,-5.7783,-5.7322,-5.7319,-5.7317,-5.7315,0,0,-5.657,-5.6701,-5.6743,-5.6802,-5.6908,-5.7012,-5.7161,-5.7287,-5.736,-5.745,-5.7575,-5.7748,-5.7697,-5.7766,-5.7763,-5.7866,-5.8077,-5.7796,-5.7798,-5.7847,-5.8333,-5.8377,-5.8418,-5.8052,-5.8058,-5.8064,-5.8326,0,-5.6823,-5.7088,-5.7096,-5.7338,-5.7464,-5.7423,-5.7553,-5.7631,-5.7662,-5.7771,-5.7804,-5.7928,-5.785,-5.7892,-5.7991,-5.803,-5.8174,-5.8011,-5.8167,-5.8173,-5.8148,-5.8464,-5.851,-5.8755,-5.836,-5.8366,-5.837,0,-5.7153,-5.7257,-5.7513,-5.7602,-5.7655,-5.7772,-5.7888,-5.7994,-5.8081,-5.8096,-5.8175,-5.8157,-5.8308,-5.8196,-5.8404,-5.8293,-5.8357,-5.8385,-5.8395,-5.841,-5.8285,-5.8489,-5.8833,-5.887,-5.8424,-5.8419,-5.8415,0,-5.7356,-5.7559,-5.7739,-5.779,-5.7898,-5.7981,-5.803,-5.811,-5.8186,-5.8286,-5.8335,-5.845,-5.8514,-5.8603,-5.8617,-5.8534,-5.8826,-5.8715,-5.8843,-5.8843,-5.8907,-5.8903,-5.9267,-5.8946,-5.8946,-5.8945,-5.8944,0,-5.7638,-5.7796,-5.7832,-5.7942,-5.8118,-5.8125,-5.8298,-5.8339,-5.8412,-5.8529,-5.8498,-5.8608,-5.8618,-5.8731,-5.8742,-5.8913,-5.8941,-5.8957,-5.8959,-5.8961,-5.896,-5.9004,-5.8988,-5.8955,-5.8952,-5.8951,-5.8949,0,-5.7894,-5.7925,-5.8118,-5.8205,-5.823,-5.8356,-5.843,-5.8535,-5.8563,-5.8711,-5.8746,-5.879,-5.8921,-5.8943,-5.9096,-5.9103,-5.9309,-5.9292,-5.9281,-5.9279,-5.9406,-5.9395,-5.9813,-5.9869,-5.951,-5.9513,-5.9516,0,-5.8073,-5.8195,-5.8295,-5.8373,-5.8427,-5.8551,-5.8628,-5.8639,-5.872,-5.883,-5.8922,-5.905,-5.9154,-5.9365,-5.9409,-5.9526,-5.9513,-5.9651,-5.953,-5.9529,-5.9517,-5.951,-5.9522,-5.9675,-5.9679,-5.9682,-5.9684,0,-5.8388,-5.8398,-5.8512,-5.8632,-5.8726,-5.882,-5.8909,-5.8974,-5.8996,-5.9089,-5.9224,-5.9305,-5.9463,-5.9591,-5.9708,-5.9755,-5.9724,-5.9722,-5.9758,-5.9763,-5.9752,-5.9762,-5.9346,-5.9713,-5.971,-5.9708,-5.9706,-5.9705,-5.8612,-5.8719,-5.8807,-5.8936,-5.9004,-5.9089,-5.9193,-5.9235,-5.9349,-5.948,-5.9478,-5.9627,-5.9711,-5.9865,-5.992,-6.0035,-5.9991,-6.0042,-6.0056,-6.0069,-6.0082,-5.9733,-6.0056,-6.0055,-6.0055,-6.0054,-6.0053,0,-5.8927,-5.8982,-5.91,-5.9228,-5.9329,-5.9293,-5.9389,-5.9476,-5.9608,-5.969,-5.9793,-5.9949,-6.0073,-6.0128,-6.0249,-6.0331,-6.032,-6.0363,-6.0358,-6.0369,-6.0114,-6.0072,-6.037,-6.037,-6.037,-6.037,-6.037,-6.037,-5.9103,-5.9282,-5.9302,-5.9514,-5.9567,-5.9715,-5.9774,-5.9851,-5.9917,-6.0093,-6.0197,-6.0233,-6.0304,-6.043,-6.0542,-6.0555,-6.0602,-6.0652,-6.0658,-6.0419,-6.0387,-6.0356,-6.0317,-6.0661,-6.0662,-6.0903,-6.0906,-6.0907]}]]